Theta_e
325 325 326 326 326 328 334 336 333 330 332 334 334 332 330 333 341 348 348 347 346 345 344 342 343 345 342 341 346 353 352 347 350 350 343 341 343 349 353 350 351 350
324 325 325 325 325 326 329 332 332 332 333 335 336 337 336 336 342 346 345 346 345 345 345 343 343 342 342 342 341 344 345 343 351 354 347 341 342 349 355 351 349 348
325 325 325 325 325 326 328 331 333 336 337 337 337 341 345 344 345 344 341 342 344 345 344 344 344 343 342 343 341 340 340 339 346 354 352 345 340 345 353 355 351 347
327 326 326 326 326 327 329 331 334 337 341 341 338 339 347 351 350 346 341 339 341 344 344 344 344 344 342 342 342 340 340 339 341 349 353 349 342 342 350 355 356 353
330 330 329 329 330 331 331 333 336 338 340 343 341 339 345 352 353 347 340 337 339 340 343 343 343 344 342 342 342 341 341 341 339 341 348 349 344 342 349 354 354 355
335 334 334 333 334 335 334 334 337 339 340 343 343 341 344 350 352 349 340 337 339 339 341 343 343 343 344 342 341 341 341 342 341 340 340 342 341 342 350 355 352 350
338 336 337 337 336 337 337 337 338 340 340 342 345 343 344 347 349 347 341 337 338 339 339 341 341 342 344 343 341 342 340 341 346 347 342 338 339 340 348 357 355 348
339 339 339 339 339 340 341 341 342 341 340 342 345 347 346 347 348 345 341 337 338 340 339 340 341 341 342 342 341 342 341 341 346 349 346 341 340 339 342 351 355 349
342 342 342 342 342 343 343 344 345 342 341 341 345 348 349 349 349 345 340 338 338 339 339 339 341 341 341 342 341 341 342 341 343 345 345 342 340 342 340 342 347 344
343 344 344 344 344 343 344 343 343 340 340 339 343 349 351 350 350 347 342 340 339 338 338 339 341 340 340 341 341 341 343 342 342 344 345 342 338 342 344 342 342 341
344 345 345 344 344 344 343 342 343 342 339 339 343 349 352 351 349 348 345 342 340 337 337 337 338 339 338 339 339 340 341 342 342 343 345 343 339 339 341 341 340 339
346 346 346 345 345 345 343 342 348 349 344 341 341 345 352 354 350 347 347 343 340 338 338 336 336 337 336 337 337 337 338 340 341 342 343 343 341 339 338 339 338 338
348 347 347 347 346 348 348 347 352 355 351 346 344 343 350 356 353 348 347 345 341 339 339 337 336 336 336 336 337 336 336 337 338 340 341 341 340 339 339 337 336 336
352 349 350 351 350 351 353 352 353 356 356 352 348 345 349 355 356 352 348 347 344 341 339 339 337 337 336 335 335 336 336 336 336 337 337 338 339 338 339 338 338 337
356 353 352 353 353 351 354 355 355 355 356 355 353 350 348 352 356 355 352 350 349 345 341 340 338 337 336 335 335 336 336 336 335 335 335 336 336 335 336 336 338 344
358 357 356 355 355 353 353 355 356 356 356 356 356 354 352 351 353 356 356 352 352 351 346 344 342 337 334 335 335 335 335 336 336 336 335 336 336 336 336 336 336 340
360 359 358 356 355 355 354 354 355 356 355 356 357 356 354 353 351 355 356 354 354 353 349 345 343 339 335 334 334 334 335 336 337 337 337 337 339 339 339 340 340 340
361 360 359 358 356 356 354 354 354 356 356 356 356 357 356 355 353 353 355 356 356 356 352 347 343 339 336 335 335 334 335 335 336 337 338 338 340 340 340 340 342 344
361 360 360 360 358 356 355 354 354 355 356 355 356 356 356 356 355 353 354 356 356 356 356 353 349 343 337 336 336 335 334 335 335 337 338 339 340 342 343 341 339 340
362 361 360 359 358 357 356 354 354 354 356 356 355 355 356 357 356 354 354 355 356 357 357 358 356 352 345 340 338 336 335 336 336 337 341 345 347 347 348 347 342 337
363 362 361 360 359 357 357 356 354 353 355 356 356 356 356 357 357 356 355 354 355 356 357 358 359 358 354 350 345 341 339 338 339 340 344 349 352 352 352 351 348 344
363 362 362 362 360 357 357 356 355 354 354 355 356 357 357 357 357 357 357 356 354 354 357 358 359 359 359 358 355 352 349 347 346 344 344 347 352 354 354 354 352 351
364 363 363 363 361 358 356 356 355 354 353 355 356 357 359 359 358 358 358 357 356 355 355 357 359 360 361 360 360 359 357 355 353 349 346 345 346 351 354 355 355 352
364 365 365 364 361 359 357 355 354 354 354 354 355 357 360 361 361 359 359 359 359 357 356 355 356 358 360 360 361 361 360 358 355 353 349 344 342 343 346 349 349 348
366 366 366 364 361 360 358 356 354 353 353 353 353 355 359 362 362 361 361 361 359 359 358 357 356 356 358 359 359 359 359 358 356 354 350 345 342 339 339 340 341 341
366 366 367 366 363 361 360 359 356 354 354 353 352 354 357 360 362 362 362 362 361 361 360 359 357 356 357 357 357 357 356 354 354 353 350 346 342 339 338 337 337 337
Wind_Speed
38 37 35 34 32 29 27 25 24 22 20 19 19 18 17 16 15 13 12 12 12 12 11 11 11 10 10 10 11 10 8 8 7 5 5 6 6 7 7 6 8 11
38 37 37 35 33 31 29 27 26 24 23 21 19 18 17 16 17 17 15 13 12 13 13 12 12 12 11 10 11 11 10 9 9 7 6 6 6 7 7 6 6 10
40 39 38 36 35 33 31 29 28 26 24 22 20 18 17 17 18 18 18 16 14 14 14 14 13 13 13 12 11 11 10 10 10 9 7 7 6 7 8 7 5 6
42 40 39 38 36 35 33 31 29 28 25 23 22 21 19 18 18 19 19 18 16 15 15 15 15 14 14 13 12 12 11 11 11 11 9 9 8 7 9 9 7 5
43 42 40 39 37 36 34 32 31 29 27 25 23 22 22 20 19 20 19 19 19 17 16 16 16 16 15 15 14 13 12 12 12 12 12 11 11 9 8 9 10 9
43 42 41 40 38 36 35 34 32 31 29 27 25 23 24 23 22 21 20 19 20 20 18 17 17 17 17 17 16 15 14 13 13 13 13 12 11 11 9 8 10 11
44 43 41 40 38 36 35 34 33 32 30 28 26 25 25 26 26 24 21 20 21 21 21 20 19 18 18 18 17 17 16 15 14 13 13 13 12 12 11 10 11 12
43 42 41 40 38 37 36 35 33 33 32 29 27 26 26 26 28 27 24 22 22 22 22 22 21 20 20 20 19 18 18 17 16 15 15 14 14 14 13 12 12 14
43 43 42 41 40 38 37 36 35 34 33 31 29 28 27 27 28 27 26 24 24 24 23 23 23 22 21 21 21 20 19 19 18 17 17 16 14 14 14 13 14 15
44 43 43 42 41 40 38 37 36 35 34 33 31 29 29 29 28 27 26 26 26 26 25 24 25 24 23 23 22 21 20 20 19 18 18 18 16 15 15 15 15 15
45 45 44 43 42 41 39 37 36 35 34 34 33 31 29 30 30 29 27 27 27 27 26 26 26 26 25 24 23 22 21 21 20 20 20 19 17 17 16 16 16 16
47 46 45 44 42 41 40 38 35 34 34 34 34 32 30 30 31 31 29 29 28 28 28 28 27 27 26 25 24 24 23 22 21 21 21 20 19 18 17 17 17 17
48 47 45 44 43 41 39 38 36 34 33 34 34 34 32 30 30 31 31 30 30 29 29 29 28 28 28 27 25 25 24 24 23 23 22 22 21 20 19 19 19 18
46 46 45 43 42 40 38 37 37 35 34 34 34 34 34 31 30 31 31 31 31 31 31 30 30 30 29 28 27 27 26 25 25 25 24 24 23 22 21 20 20 19
44 44 44 42 41 41 39 37 36 36 35 34 34 34 34 33 31 30 31 32 32 32 32 31 32 32 31 30 29 28 28 27 27 26 26 26 25 24 23 22 21 20
42 42 43 42 42 42 40 39 37 36 36 35 35 34 34 34 33 31 31 32 32 33 33 32 32 33 32 31 30 29 29 29 28 27 27 27 26 25 25 24 23 21
41 42 42 43 43 42 42 41 39 37 36 36 35 34 34 34 34 33 32 31 32 33 33 33 33 33 33 32 30 30 29 29 29 29 28 27 26 26 26 25 23 22
41 42 42 42 43 43 43 42 40 39 38 37 36 36 34 34 35 35 34 32 31 32 33 33 34 34 33 32 30 29 29 29 29 30 29 29 28 27 27 26 25 24
41 42 42 43 43 43 43 43 42 40 40 39 38 37 35 34 35 36 36 34 32 32 32 32 32 33 33 32 31 29 28 28 29 29 30 30 29 28 28 28 27 26
41 42 43 43 43 43 43 44 44 42 41 40 39 38 37 35 35 36 37 36 34 32 32 31 31 31 32 33 32 30 28 28 28 29 29 29 28 28 27 27 27 27
42 43 43 43 44 44 44 44 45 44 42 40 38 38 38 37 36 35 36 37 36 33 31 31 31 30 31 31 32 31 30 30 29 29 29 27 26 26 26 26 26 26
44 44 44 44 44 45 45 45 45 45 44 41 38 36 37 38 37 36 36 37 37 36 33 31 30 30 30 30 30 29 29 29 29 30 29 28 26 25 25 26 26 26
45 45 45 45 45 45 46 46 45 45 45 42 39 35 34 36 38 37 36 35 36 37 36 33 30 30 30 29 29 28 28 27 27 28 29 29 29 28 27 27 28 28
45 45 45 45 45 45 47 47 46 45 45 44 42 37 33 33 36 37 36 35 34 35 37 36 34 32 31 31 30 30 29 28 28 27 27 29 30 32 32 31 31 31
44 44 45 45 45 44 45 47 47 46 45 44 44 40 35 32 33 35 35 34 33 33 34 35 35 34 33 32 32 32 32 31 30 29 29 29 29 31 33 34 34 33
44 43 42 43 44 44 42 43 45 46 45 45 44 42 38 33 32 33 33 32 31 31 32 33 34 35 35 34 34 34 33 32 32 32 32 31 30 30 31 33 34 34
Wind_Direction
217 219 219 221 223 221 219 224 231 234 231 228 231 235 234 228 219 218 225 219 206 209 214 206 198 198 195 194 189 185 193 185 168 171 170 163 159 162 183 193 183 177
218 219 220 221 223 224 222 225 231 234 234 231 228 231 233 227 215 213 222 224 214 208 211 210 204 202 200 197 196 196 197 187 175 186 191 180 170 165 180 200 193 181
218 219 221 222 223 225 225 226 229 231 232 231 225 219 222 222 216 214 219 222 219 212 208 210 208 206 206 203 200 199 200 196 186 189 197 196 190 172 173 192 208 199
218 219 221 222 224 226 226 225 226 227 227 229 224 215 212 216 217 217 218 217 220 218 212 211 210 209 208 206 206 202 200 203 198 196 200 201 202 186 172 183 201 226
219 220 221 222 223 225 226 224 223 224 223 224 225 216 206 209 216 219 218 214 217 222 218 213 211 211 211 208 208 207 203 205 206 206 208 205 203 201 191 191 195 202
220 220 220 222 221 222 224 223 221 222 221 219 222 217 206 205 215 220 219 215 216 220 220 218 214 212 216 214 209 209 209 208 209 213 215 213 209 204 200 213 217 206
218 219 219 220 219 218 220 221 218 219 221 218 217 216 208 206 213 218 218 215 216 220 221 220 219 215 217 219 213 210 213 211 212 217 217 215 217 215 204 211 232 231
217 217 216 217 217 216 216 218 217 216 219 217 212 212 209 208 213 218 219 217 215 219 221 221 222 220 219 221 218 213 215 215 213 219 222 215 213 220 219 215 228 240
216 216 216 216 217 217 217 218 218 216 217 215 210 208 208 209 214 219 220 218 216 217 220 220 222 225 223 223 223 218 217 219 217 221 228 227 219 220 226 226 229 242
215 215 217 217 217 218 217 217 218 217 215 213 209 206 207 209 213 218 219 218 217 217 220 219 221 226 228 227 226 223 221 221 222 224 230 235 231 226 230 235 235 242
214 214 216 217 216 217 216 214 214 216 216 213 209 206 207 209 212 217 219 218 218 218 221 222 222 225 229 230 229 227 226 224 224 226 230 235 236 233 234 239 242 245
213 213 215 217 215 215 214 211 207 210 214 215 212 208 206 209 213 216 217 219 220 219 221 225 225 226 229 232 232 230 229 229 228 229 233 237 240 240 238 240 245 248
212 212 213 215 214 211 210 208 203 203 209 214 215 211 205 205 212 216 217 219 222 221 222 225 228 228 230 232 233 234 233 232 232 233 235 239 242 244 246 247 248 249
211 211 210 211 211 207 206 206 203 201 206 210 212 211 206 203 208 216 217 218 222 223 223 225 228 230 231 232 233 234 235 236 236 237 238 240 242 245 248 250 250 250
208 209 208 208 209 206 204 205 203 202 204 208 210 210 207 203 205 213 217 216 219 223 224 224 227 230 231 233 234 232 233 236 238 239 240 241 243 245 246 248 249 247
207 207 207 207 207 207 205 203 203 202 204 208 210 209 207 204 204 210 216 217 217 220 222 222 225 231 233 234 236 236 234 234 236 240 242 241 242 244 246 248 250 247
208 206 206 206 207 207 205 203 202 202 202 206 210 210 208 205 203 206 214 218 217 219 223 222 223 230 235 236 237 238 237 234 234 238 242 242 240 241 244 246 247 248
209 208 206 206 206 207 206 204 202 201 201 204 208 211 209 206 205 205 209 215 217 219 224 226 225 229 236 238 238 238 239 237 234 235 239 242 241 240 243 245 244 243
209 209 207 207 206 207 207 205 202 201 202 203 206 210 211 209 208 206 206 211 216 218 222 225 227 230 234 238 240 239 239 238 236 234 235 239 242 242 241 244 247 246
209 209 209 208 206 206 207 206 203 202 202 203 205 209 211 211 211 209 207 209 213 218 222 224 227 231 234 237 239 240 240 238 237 236 233 234 240 242 241 242 246 250
209 209 209 209 207 206 207 207 205 203 203 203 204 207 211 212 212 211 211 211 212 215 221 224 226 231 235 238 239 240 241 240 238 236 233 232 235 240 242 243 244 248
209 209 209 208 208 207 207 208 207 205 204 204 204 206 211 213 213 213 213 215 214 215 218 222 225 229 233 238 241 242 242 242 241 239 236 233 232 234 239 241 243 245
209 209 209 208 207 207 208 209 209 208 206 205 204 205 208 212 214 214 214 216 217 217 218 219 222 226 229 233 238 241 242 242 242 241 239 235 231 230 232 236 239 241
209 209 208 208 208 209 209 209 210 210 208 206 206 206 207 209 213 215 215 216 218 219 220 221 222 224 227 230 234 238 240 242 242 242 243 241 236 232 232 234 238 241
208 209 210 211 211 210 209 209 210 210 209 209 208 208 207 209 212 215 216 217 218 221 223 225 225 226 228 231 234 236 239 242 244 244 246 246 244 240 238 238 240 244
208 209 210 211 211 209 208 209 211 211 211 211 211 210 209 210 213 216 216 217 218 220 223 227 229 229 229 231 235 238 242 244 245 247 250 251 250 248 245 243 244 246